| time (UTC) | temp F | wind direction | speed knots | gust knots | rain 1hr in | rain 24hr in | rain mn in | humidity % | barometer mb |
| 20260507085537 | 65 | 321 | 7.0 | 13.9 | 0.00 | 0.37 | 0.00 | 71 | 1014.0 |
| 20260507085039 | 65 | 282 | 6.1 | 13.9 | 0.00 | 0.37 | 0.00 | 64 | 1014.0 |
| 20260507084550 | 65 | 278 | 3.5 | 7.8 | 0.00 | 0.37 | 0.00 | 66 | 1014.0 |
| 20260507084037 | 66 | 232 | 1.7 | 7.8 | 0.00 | 0.37 | 0.00 | 67 | 1013.8 |
| 20260507083537 | 65 | 304 | 3.5 | 7.8 | 0.00 | 0.37 | 0.00 | 66 | 1013.8 |
| 20260507083049 | 65 | 0 | 1.7 | 7.8 | 0.00 | 0.37 | 0.00 | 67 | 1013.8 |
| 20260507082537 | 65 | 221 | 3.5 | 7.8 | 0.00 | 0.37 | 0.00 | 67 | 1013.8 |
| 20260507082039 | 65 | 315 | 2.6 | 7.0 | 0.00 | 0.37 | 0.00 | 67 | 1013.8 |
| 20260507081546 | 64 | 331 | 3.5 | 5.2 | 0.00 | 0.37 | 0.00 | 67 | 1014.0 |
| 20260507081038 | 64 | 291 | 2.6 | 4.3 | 0.00 | 0.37 | 0.00 | 68 | 1013.8 |
| 20260507080537 | 63 | 311 | 0.0 | 1.7 | 0.00 | 0.37 | 0.00 | 69 | 1013.9 |
| 20260507080100 | 63 | 218 | 0.0 | 3.5 | 0.00 | 0.37 | 0.00 | 72 | 1013.8 |
| 20260507075538 | 62 | 0 | 0.0 | 3.5 | 0.00 | 0.37 | 0.00 | 75 | 1013.7 |
| 20260507075037 | 61 | 163 | 0.0 | 2.6 | 0.00 | 0.37 | 0.00 | 77 | 1013.8 |
| 20260507074551 | 61 | 0 | 0.9 | 2.6 | 0.00 | 0.37 | 0.00 | 77 | 1013.7 |
| 20260507074037 | 60 | 178 | 0.0 | 1.7 | 0.00 | 0.37 | 0.00 | 77 | 1013.7 |
| 20260507073537 | 60 | 155 | 0.0 | 1.7 | 0.00 | 0.37 | 0.00 | 79 | 1013.7 |
| 20260507073048 | 60 | 0 | 0.0 | 1.7 | 0.00 | 0.37 | 0.00 | 78 | 1013.6 |
| 20260507072538 | 60 | 0 | 0.0 | 2.6 | 0.00 | 0.37 | 0.00 | 78 | 1013.6 |
| 20260507072113 | 59 | 301 | 0.9 | 2.6 | 0.00 | 0.37 | 0.00 | 79 | 1013.7 |
| 20260507071606 | 59 | 295 | 0.9 | 3.5 | 0.00 | 0.37 | 0.00 | 80 | 1013.6 |
| 20260507071038 | 59 | 302 | 1.7 | 3.5 | 0.00 | 0.37 | 0.00 | 80 | 1013.5 |
| 20260507070537 | 59 | 327 | 0.0 | 3.5 | 0.00 | 0.37 | 0.00 | 80 | 1013.4 |
| 20260507070048 | 59 | 292 | 0.9 | 3.5 | 0.00 | 0.37 | 0.00 | 81 | 1013.4 |
| 20260507065537 | 58 | 0 | 0.0 | 0.9 | 0.00 | 0.38 | 0.00 | 81 | 1013.3 |
| 20260507065037 | 58 | 0 | 0.0 | 0.9 | 0.00 | 0.38 | 0.00 | 81 | 1013.2 |
| 20260507064546 | 58 | 0 | 0.0 | 1.7 | 0.00 | 0.38 | 0.00 | 82 | 1013.2 |
| 20260507064037 | 58 | 0 | 0.0 | 1.7 | 0.00 | 0.38 | 0.00 | 82 | 1013.1 |
| 20260507063538 | 57 | 0 | 0.0 | 1.7 | 0.00 | 0.38 | 0.00 | 83 | 1013.1 |
| 20260507063047 | 57 | 258 | 0.0 | 1.7 | 0.00 | 0.38 | 0.00 | 84 | 1013.2 |
| 20260507062538 | 56 | 0 | 0.0 | 1.7 | 0.00 | 0.38 | 0.00 | 85 | 1013.1 |
| 20260507062038 | 56 | 305 | 0.0 | 2.6 | 0.00 | 0.38 | 0.00 | 85 | 1013.1 |
| 20260507061545 | 56 | 305 | 0.9 | 3.5 | 0.00 | 0.38 | 0.00 | 86 | 1013.0 |
| 20260507061038 | 55 | 300 | 0.9 | 3.5 | 0.00 | 0.38 | 0.00 | 86 | 1012.9 |
| 20260507060538 | 55 | 331 | 1.7 | 2.6 | 0.00 | 0.38 | 0.00 | 86 | 1012.9 |
| 20260507060045 | 55 | 287 | 0.9 | 2.6 | 0.00 | 0.38 | 0.00 | 87 | 1012.8 |
| 20260507055538 | 55 | 307 | 1.7 | 2.6 | 0.00 | 0.38 | 0.00 | 87 | 1012.9 |
| 20260507055037 | 55 | 5 | 0.9 | 2.6 | 0.00 | 0.38 | 0.00 | 88 | 1012.8 |
| 20260507054545 | 55 | 0 | 0.0 | 2.6 | 0.00 | 0.38 | 0.00 | 88 | 1012.8 |
| 20260507054037 | 55 | 284 | 0.9 | 2.6 | 0.00 | 0.38 | 0.00 | 88 | 1012.8 |
| 20260507053538 | 54 | 254 | 0.9 | 3.5 | 0.00 | 0.38 | 0.00 | 88 | 1012.8 |
| 20260507053111 | 54 | 254 | 1.7 | 3.5 | 0.00 | 0.38 | 0.00 | 89 | 1012.7 |
| 20260507052538 | 54 | 229 | 1.7 | 3.5 | 0.00 | 0.38 | 0.00 | 89 | 1012.6 |
| 20260507052037 | 54 | 0 | 0.0 | 2.6 | 0.00 | 0.38 | 0.00 | 88 | 1012.5 |
| 20260507051552 | 54 | 246 | 0.9 | 2.6 | 0.00 | 0.38 | 0.00 | 88 | 1012.5 |
| 20260507051037 | 54 | 0 | 0.9 | 1.7 | 0.00 | 0.38 | 0.00 | 88 | 1012.4 |
| 20260507050538 | 54 | 0 | 0.0 | 1.7 | 0.00 | 0.38 | 0.00 | 88 | 1012.3 |
| 20260507050046 | 54 | 0 | 0.0 | 0.9 | 0.00 | 0.38 | 0.00 | 88 | 1012.2 |
| 20260507045539 | 54 | 11 | 0.0 | 0.9 | 0.00 | 0.52 | 0.00 | 88 | 1012.1 |
| 20260507045039 | 54 | 0 | 0.0 | 0.9 | 0.00 | 0.52 | 0.00 | 87 | 1012.2 |
| 20260507044547 | 54 | 0 | 0.0 | 0.0 | 0.00 | 0.52 | 0.00 | 87 | 1012.1 |
| 20260507044037 | 54 | 0 | 0.0 | 0.0 | 0.00 | 0.52 | 0.00 | 87 | 1012.0 |
| 20260507043537 | 54 | 0 | 0.0 | 0.0 | 0.00 | 0.52 | 0.00 | 87 | 1011.9 |
| 20260507043047 | 54 | 0 | 0.0 | 0.9 | 0.00 | 0.52 | 0.00 | 87 | 1012.0 |
| 20260507042538 | 54 | 0 | 0.0 | 1.7 | 0.00 | 0.52 | 0.00 | 87 | 1011.9 |
| 20260507042037 | 54 | 0 | 0.0 | 1.7 | 0.00 | 0.52 | 0.00 | 87 | 1011.8 |
| 20260507041547 | 54 | 5 | 0.0 | 1.7 | 0.00 | 0.52 | 0.00 | 87 | 1011.8 |
| 20260507041037 | 54 | 5 | 0.0 | 1.7 | 0.00 | 0.52 | 0.00 | 87 | 1011.9 |
| 20260507040538 | 54 | 0 | 0.0 | 1.7 | 0.00 | 0.52 | 0.00 | 87 | 1011.8 |
| 20260507040134 | 54 | 0 | 0.0 | 1.7 | 0.00 | 0.52 | 0.00 | 87 | 1011.8 |
| 20260507035538 | 54 | 0 | 0.0 | 1.7 | 0.00 | 0.61 | 0.00 | 86 | 1011.8 |
| 20260507035037 | 54 | 352 | 0.0 | 2.6 | 0.00 | 0.61 | 0.00 | 86 | 1011.9 |
| 20260507034546 | 54 | 0 | 0.0 | 4.3 | 0.00 | 0.61 | 0.00 | 86 | 1012.0 |
| 20260507034037 | 54 | 10 | 1.7 | 4.3 | 0.00 | 0.61 | 0.00 | 87 | 1011.9 |
| 20260507033538 | 54 | 332 | 1.7 | 3.5 | 0.00 | 0.61 | 0.00 | 86 | 1011.8 |
| 20260507033052 | 54 | 334 | 1.7 | 4.3 | 0.00 | 0.61 | 0.00 | 86 | 1011.8 |
| 20260507032539 | 54 | 352 | 1.7 | 6.1 | 0.00 | 0.61 | 0.00 | 86 | 1011.8 |
| 20260507032037 | 54 | 329 | 2.6 | 6.1 | 0.00 | 0.61 | 0.00 | 86 | 1011.7 |
| 20260507031553 | 54 | 316 | 1.7 | 3.5 | 0.00 | 0.61 | 0.00 | 86 | 1011.8 |
| 20260507031040 | 54 | 321 | 1.7 | 4.3 | 0.00 | 0.61 | 0.00 | 86 | 1011.7 |
| 20260507030537 | 54 | 344 | 1.7 | 4.3 | 0.00 | 0.61 | 0.00 | 85 | 1011.7 |
| 20260507030050 | 54 | 346 | 1.7 | 4.3 | 0.00 | 0.61 | 0.00 | 85 | 1011.7 |
| 20260507025537 | 54 | 340 | 1.7 | 4.3 | 0.00 | 0.61 | 0.00 | 85 | 1011.7 |
| 20260507025037 | 54 | 338 | 2.6 | 3.5 | 0.00 | 0.61 | 0.00 | 85 | 1011.7 |
| 20260507024550 | 55 | 352 | 1.7 | 4.3 | 0.00 | 0.61 | 0.00 | 85 | 1011.7 |
| 20260507024039 | 55 | 17 | 1.7 | 5.2 | 0.00 | 0.61 | 0.00 | 85 | 1011.6 |
| 20260507023537 | 55 | 360 | 1.7 | 5.2 | 0.00 | 0.61 | 0.00 | 84 | 1011.6 |
| 20260507023047 | 55 | 9 | 1.7 | 5.2 | 0.00 | 0.61 | 0.00 | 84 | 1011.5 |
| 20260507022537 | 55 | 342 | 2.6 | 7.0 | 0.00 | 0.61 | 0.00 | 84 | 1011.6 |
| 20260507022039 | 55 | 327 | 2.6 | 7.0 | 0.00 | 0.61 | 0.00 | 84 | 1011.5 |
| 20260507021545 | 55 | 338 | 3.5 | 5.2 | 0.00 | 0.61 | 0.00 | 83 | 1011.6 |
| 20260507021038 | 55 | 347 | 2.6 | 5.2 | 0.00 | 0.61 | 0.00 | 83 | 1011.6 |
| 20260507020538 | 55 | 5 | 2.6 | 4.3 | 0.00 | 0.61 | 0.00 | 83 | 1011.6 |
| 20260507020047 | 55 | 360 | 2.6 | 4.3 | 0.00 | 0.61 | 0.00 | 83 | 1011.6 |
| 20260507015537 | 55 | 340 | 1.7 | 7.0 | 0.00 | 0.61 | 0.00 | 83 | 1011.5 |
| 20260507015038 | 56 | 319 | 1.7 | 7.0 | 0.00 | 0.61 | 0.00 | 83 | 1011.5 |
| 20260507014601 | 56 | 304 | 3.5 | 7.0 | 0.00 | 0.61 | 0.00 | 82 | 1011.6 |
| 20260507014038 | 56 | 332 | 1.7 | 7.0 | 0.00 | 0.61 | 0.00 | 82 | 1011.4 |
| 20260507013537 | 56 | 325 | 3.5 | 7.0 | 0.00 | 0.61 | 0.00 | 82 | 1011.4 |
| 20260507013050 | 56 | 318 | 2.6 | 6.1 | 0.00 | 0.61 | 0.00 | 82 | 1011.4 |
| 20260507012537 | 56 | 286 | 2.6 | 7.0 | 0.00 | 0.61 | 0.00 | 82 | 1011.4 |
| 20260507012037 | 56 | 307 | 3.5 | 7.0 | 0.00 | 0.61 | 0.00 | 82 | 1011.4 |
| 20260507011552 | 56 | 309 | 2.6 | 6.1 | 0.00 | 0.61 | 0.00 | 82 | 1011.4 |
| 20260507011038 | 56 | 325 | 1.7 | 6.1 | 0.00 | 0.61 | 0.00 | 82 | 1011.4 |
| 20260507010537 | 56 | 344 | 2.6 | 6.1 | 0.00 | 0.61 | 0.00 | 82 | 1011.2 |
| 20260507010054 | 56 | 9 | 2.6 | 7.0 | 0.00 | 0.61 | 0.00 | 82 | 1011.3 |
| 20260507005539 | 56 | 336 | 2.6 | 7.0 | 0.00 | 0.61 | 0.00 | 82 | 1011.3 |
| 20260507005038 | 56 | 321 | 3.5 | 7.0 | 0.00 | 0.61 | 0.00 | 82 | 1011.3 |
| 20260507004559 | 56 | 5 | 3.5 | 5.2 | 0.00 | 0.61 | 0.00 | 82 | 1011.3 |
| 20260507004038 | 56 | 352 | 3.5 | 5.2 | 0.00 | 0.61 | 0.00 | 82 | 1011.4 |
| 20260507003538 | 56 | 331 | 3.5 | 5.2 | 0.00 | 0.61 | 0.00 | 82 | 1011.4 |
| 20260507003046 | 56 | 341 | 2.6 | 5.2 | 0.00 | 0.61 | 0.00 | 82 | 1011.5 |
| 20260507002538 | 56 | 346 | 2.6 | 4.3 | 0.00 | 0.61 | 0.00 | 82 | 1011.4 |
| 20260507002038 | 56 | 335 | 2.6 | 4.3 | 0.00 | 0.61 | 0.00 | 82 | 1011.4 |
| 20260507001551 | 56 | 343 | 1.7 | 4.3 | 0.00 | 0.61 | 0.00 | 82 | 1011.4 |
| 20260507001037 | 56 | 349 | 2.6 | 4.3 | 0.00 | 0.61 | 0.00 | 82 | 1011.5 |
| 20260507000538 | 56 | 352 | 2.6 | 7.0 | 0.00 | 0.61 | 0.00 | 82 | 1011.5 |
| 20260507000054 | 56 | 345 | 2.6 | 7.0 | 0.00 | 0.61 | 0.00 | 82 | 1011.4 |
| 20260506235539 | 56 | 348 | 3.5 | 7.0 | 0.00 | 0.61 | 0.00 | 83 | 1011.4 |
| 20260506235037 | 56 | 21 | 3.5 | 7.0 | 0.00 | 0.61 | 0.00 | 83 | 1011.3 |
| 20260506234545 | 56 | 351 | 2.6 | 7.0 | 0.00 | 0.61 | 0.00 | 83 | 1011.4 |
| 20260506234040 | 56 | 342 | 2.6 | 4.3 | 0.00 | 0.61 | 0.00 | 83 | 1011.4 |
| 20260506233540 | 56 | 338 | 2.6 | 4.3 | 0.00 | 0.61 | 0.00 | 83 | 1011.3 |
| 20260506233056 | 56 | 331 | 1.7 | 4.3 | 0.00 | 0.61 | 0.00 | 82 | 1011.3 |
| 20260506232537 | 56 | 352 | 1.7 | 7.0 | 0.00 | 0.61 | 0.00 | 83 | 1011.2 |
| 20260506232035 | 56 | 347 | 2.6 | 7.0 | 0.00 | 0.61 | 0.00 | 82 | 1011.1 |
| 20260506231546 | 56 | 352 | 3.5 | 7.0 | 0.00 | 0.61 | 0.00 | 82 | 1011.0 |
| 20260506231035 | 56 | 5 | 2.6 | 6.1 | 0.00 | 0.61 | 0.00 | 82 | 1010.9 |
| 20260506230534 | 56 | 352 | 1.7 | 5.2 | 0.00 | 0.61 | 0.00 | 82 | 1010.9 |
| 20260506230051 | 56 | 5 | 1.7 | 5.2 | 0.00 | 0.61 | 0.00 | 82 | 1010.9 |
| 20260506225541 | 56 | 343 | 2.6 | 5.2 | 0.00 | 0.62 | 0.00 | 81 | 1010.8 |
| 20260506225038 | 57 | 9 | 2.6 | 5.2 | 0.00 | 0.62 | 0.00 | 81 | 1010.8 |
| 20260506224553 | 57 | 329 | 2.6 | 7.0 | 0.00 | 0.62 | 0.00 | 81 | 1010.9 |
| 20260506224039 | 57 | 352 | 2.6 | 7.0 | 0.00 | 0.62 | 0.00 | 81 | 1010.9 |
| 20260506223537 | 57 | 339 | 2.6 | 4.3 | 0.00 | 0.62 | 0.00 | 80 | 1010.8 |
| 20260506223045 | 57 | 323 | 1.7 | 6.1 | 0.00 | 0.62 | 0.00 | 80 | 1010.9 |
| 20260506222538 | 57 | 317 | 1.7 | 6.1 | 0.00 | 0.62 | 0.00 | 80 | 1011.0 |
| 20260506222038 | 57 | 300 | 1.7 | 5.2 | 0.00 | 0.62 | 0.00 | 80 | 1011.0 |
| 20260506221549 | 57 | 281 | 1.7 | 3.5 | 0.00 | 0.62 | 0.00 | 80 | 1011.0 |
| 20260506221037 | 57 | 259 | 1.7 | 2.6 | 0.00 | 0.62 | 0.00 | 80 | 1011.0 |
| 20260506220537 | 57 | 298 | 0.9 | 3.5 | 0.00 | 0.62 | 0.00 | 79 | 1011.0 |
| 20260506220049 | 57 | 56 | 0.0 | 3.5 | 0.00 | 0.62 | 0.00 | 79 | 1010.9 |
| 20260506215537 | 57 | 0 | 0.9 | 5.2 | 0.00 | 0.62 | 0.62 | 79 | 1010.9 |
| 20260506215039 | 57 | 360 | 2.6 | 5.2 | 0.00 | 0.62 | 0.62 | 79 | 1010.8 |
| 20260506214600 | 58 | 346 | 1.7 | 5.2 | 0.00 | 0.62 | 0.62 | 78 | 1010.7 |
| 20260506214036 | 58 | 14 | 1.7 | 7.8 | 0.00 | 0.62 | 0.62 | 78 | 1010.8 |
| 20260506213541 | 58 | 67 | 2.6 | 7.8 | 0.00 | 0.62 | 0.62 | 78 | 1010.7 |
| 20260506213049 | 58 | 20 | 3.5 | 7.8 | 0.00 | 0.62 | 0.62 | 77 | 1010.7 |
| 20260506212538 | 58 | 42 | 2.6 | 7.0 | 0.00 | 0.62 | 0.62 | 77 | 1010.7 |
| 20260506212038 | 58 | 26 | 2.6 | 7.8 | 0.00 | 0.62 | 0.62 | 77 | 1010.7 |
| 20260506211547 | 58 | 12 | 3.5 | 8.7 | 0.00 | 0.62 | 0.62 | 77 | 1010.7 |
| 20260506211038 | 58 | 360 | 4.3 | 8.7 | 0.00 | 0.62 | 0.62 | 77 | 1010.8 |
| 20260506210537 | 58 | 338 | 4.3 | 8.7 | 0.00 | 0.62 | 0.62 | 77 | 1010.7 |
| 20260506210050 | 58 | 48 | 2.6 | 7.0 | 0.00 | 0.62 | 0.62 | 78 | 1010.7 |
| 20260506205538 | 58 | 337 | 2.6 | 7.0 | 0.00 | 0.66 | 0.62 | 78 | 1010.7 |
| 20260506205037 | 58 | 352 | 3.5 | 7.8 | 0.00 | 0.66 | 0.62 | 78 | 1010.7 |
| 20260506204551 | 58 | 360 | 3.5 | 8.7 | 0.00 | 0.66 | 0.62 | 78 | 1010.7 |
| 20260506204037 | 58 | 344 | 3.5 | 8.7 | 0.00 | 0.66 | 0.62 | 78 | 1010.7 |
| 20260506203540 | 58 | 337 | 4.3 | 10.4 | 0.00 | 0.66 | 0.62 | 78 | 1010.6 |
| 20260506203048 | 58 | 11 | 5.2 | 10.4 | 0.00 | 0.66 | 0.62 | 78 | 1010.7 |
| 20260506202537 | 58 | 13 | 5.2 | 8.7 | 0.00 | 0.66 | 0.62 | 78 | 1010.4 |
| 20260506202036 | 57 | 352 | 5.2 | 11.3 | 0.00 | 0.66 | 0.62 | 79 | 1010.4 |
| 20260506201548 | 57 | 360 | 6.1 | 11.3 | 0.00 | 0.66 | 0.62 | 79 | 1010.4 |
| 20260506201036 | 57 | 11 | 6.1 | 11.3 | 0.00 | 0.66 | 0.62 | 80 | 1010.4 |
| 20260506200535 | 57 | 43 | 6.1 | 12.2 | 0.00 | 0.66 | 0.62 | 81 | 1010.3 |
| 20260506200100 | 57 | 26 | 7.0 | 12.2 | 0.00 | 0.66 | 0.62 | 82 | 1010.4 |
| 20260506195536 | 57 | 327 | 6.1 | 10.4 | 0.00 | 0.67 | 0.62 | 82 | 1010.4 |
| 20260506195038 | 57 | 352 | 5.2 | 10.4 | 0.00 | 0.67 | 0.62 | 82 | 1010.3 |
| 20260506194551 | 57 | 317 | 6.1 | 10.4 | 0.00 | 0.67 | 0.62 | 82 | 1010.4 |
| 20260506194039 | 58 | 345 | 7.0 | 10.4 | 0.00 | 0.67 | 0.62 | 82 | 1010.3 |
| 20260506193535 | 58 | 330 | 4.3 | 9.6 | 0.00 | 0.67 | 0.62 | 81 | 1010.0 |
| 20260506193054 | 58 | 328 | 2.6 | 7.8 | 0.00 | 0.67 | 0.62 | 80 | 1009.9 |
| 20260506192537 | 58 | 323 | 4.3 | 7.8 | 0.00 | 0.67 | 0.62 | 80 | 1010.0 |
| 20260506192041 | 58 | 333 | 2.6 | 7.0 | 0.00 | 0.67 | 0.62 | 79 | 1009.9 |
| 20260506191554 | 58 | 5 | 2.6 | 7.0 | 0.00 | 0.67 | 0.62 | 79 | 1009.8 |
| 20260506191038 | 58 | 348 | 3.5 | 7.0 | 0.00 | 0.67 | 0.62 | 79 | 1009.6 |
| 20260506190538 | 58 | 25 | 2.6 | 6.1 | 0.00 | 0.67 | 0.62 | 79 | 1009.6 |
| 20260506190053 | 58 | 30 | 2.6 | 6.1 | 0.00 | 0.67 | 0.62 | 79 | 1009.6 |
| 20260506185537 | 58 | 5 | 3.5 | 5.2 | 0.00 | 0.67 | 0.62 | 79 | 1009.5 |
| 20260506185035 | 58 | 338 | 2.6 | 7.8 | 0.00 | 0.67 | 0.62 | 78 | 1009.4 |
| 20260506184549 | 58 | 5 | 2.6 | 7.8 | 0.00 | 0.67 | 0.62 | 78 | 1009.4 |
| 20260506184036 | 58 | 13 | 3.5 | 7.8 | 0.00 | 0.67 | 0.62 | 78 | 1009.2 |
| 20260506183538 | 58 | 352 | 3.5 | 8.7 | 0.00 | 0.67 | 0.62 | 77 | 1009.1 |
| 20260506183052 | 59 | 352 | 4.3 | 13.0 | 0.00 | 0.67 | 0.62 | 77 | 1009.2 |
| 20260506182537 | 59 | 21 | 5.2 | 13.0 | 0.00 | 0.67 | 0.62 | 77 | 1009.1 |
| 20260506182037 | 59 | 44 | 7.0 | 13.0 | 0.00 | 0.67 | 0.62 | 76 | 1008.9 |
| 20260506181556 | 59 | 35 | 3.5 | 9.6 | 0.00 | 0.67 | 0.62 | 76 | 1008.8 |
| 20260506181038 | 60 | 35 | 4.3 | 9.6 | 0.00 | 0.67 | 0.62 | 76 | 1008.8 |
| 20260506180538 | 60 | 40 | 5.2 | 11.3 | 0.00 | 0.67 | 0.62 | 75 | 1008.8 |
| 20260506180111 | 60 | 32 | 4.3 | 11.3 | 0.00 | 0.67 | 0.62 | 75 | 1008.7 |
| 20260506175538 | 60 | 19 | 6.1 | 11.3 | 0.00 | 0.67 | 0.62 | 75 | 1008.6 |
| 20260506175037 | 60 | 5 | 5.2 | 10.4 | 0.00 | 0.67 | 0.62 | 75 | 1008.6 |
| 20260506174549 | 61 | 14 | 4.3 | 13.0 | 0.00 | 0.67 | 0.62 | 75 | 1008.6 |
| 20260506174037 | 61 | 5 | 7.0 | 13.0 | 0.00 | 0.67 | 0.62 | 74 | 1008.5 |
| 20260506173537 | 61 | 10 | 8.7 | 14.8 | 0.00 | 0.67 | 0.62 | 74 | 1008.4 |
| 20260506173106 | 61 | 352 | 7.8 | 14.8 | 0.00 | 0.67 | 0.62 | 74 | 1008.3 |
| 20260506172709 | 62 | 9 | 7.0 | 14.8 | 0.00 | 0.67 | 0.62 | 73 | 1008.2 |
| 20260506172037 | 62 | 360 | 9.6 | 14.8 | 0.00 | 0.67 | 0.62 | 72 | 1008.1 |
| 20260506171547 | 64 | 337 | 9.6 | 14.8 | 0.00 | 0.67 | 0.62 | 70 | 1008.0 |
| 20260506171037 | 65 | 22 | 7.8 | 14.8 | 0.00 | 0.67 | 0.62 | 68 | 1007.8 |
| 20260506170539 | 66 | 5 | 7.8 | 13.9 | 0.00 | 0.67 | 0.62 | 66 | 1007.6 |
| 20260506170050 | 67 | 320 | 6.1 | 12.2 | 0.00 | 0.67 | 0.62 | 62 | 1007.5 |
| 20260506165537 | 69 | 341 | 8.7 | 12.2 | 0.00 | 0.67 | 0.62 | 59 | 1007.3 |
| 20260506165038 | 70 | 236 | 3.5 | 11.3 | 0.00 | 0.67 | 0.62 | 49 | 1007.1 |
| 20260506164549 | 70 | 173 | 4.3 | 15.6 | 0.00 | 0.67 | 0.62 | 49 | 1006.9 |
| 20260506164037 | 70 | 209 | 7.8 | 15.6 | 0.00 | 0.67 | 0.62 | 49 | 1006.7 |
| 20260506163537 | 70 | 178 | 6.1 | 13.0 | 0.00 | 0.67 | 0.62 | 51 | 1006.7 |
| 20260506163055 | 70 | 171 | 6.1 | 13.9 | 0.00 | 0.67 | 0.62 | 51 | 1006.6 |
| 20260506162537 | 70 | 194 | 6.1 | 13.9 | 0.00 | 0.67 | 0.62 | 52 | 1006.6 |
| 20260506162039 | 70 | 167 | 5.2 | 13.9 | 0.00 | 0.67 | 0.62 | 49 | 1006.5 |
| 20260506161554 | 70 | 228 | 5.2 | 13.9 | 0.00 | 0.67 | 0.62 | 56 | 1006.5 |
| 20260506161037 | 70 | 157 | 7.0 | 13.9 | 0.00 | 0.67 | 0.62 | 57 | 1006.4 |
| 20260506160537 | 70 | 163 | 6.1 | 13.9 | 0.00 | 0.67 | 0.62 | 64 | 1006.4 |
| 20260506160049 | 70 | 140 | 7.8 | 14.8 | 0.00 | 0.67 | 0.62 | 73 | 1006.4 |
| 20260506155541 | 69 | 148 | 7.0 | 14.8 | 0.00 | 0.67 | 0.62 | 74 | 1006.4 |
| 20260506155035 | 69 | 150 | 10.4 | 14.8 | 0.00 | 0.67 | 0.62 | 74 | 1006.5 |
| 20260506154552 | 69 | 132 | 7.0 | 17.4 | 0.00 | 0.67 | 0.62 | 76 | 1006.5 |
| 20260506154038 | 69 | 120 | 8.7 | 17.4 | 0.00 | 0.67 | 0.62 | 76 | 1006.6 |
| 20260506153538 | 69 | 149 | 9.6 | 17.4 | 0.00 | 0.67 | 0.62 | 71 | 1006.6 |
| 20260506153046 | 69 | 140 | 9.6 | 16.5 | 0.00 | 0.67 | 0.62 | 77 | 1006.7 |
| 20260506152538 | 69 | 112 | 7.8 | 13.0 | 0.00 | 0.67 | 0.62 | 78 | 1006.7 |
| 20260506152041 | 69 | 106 | 7.8 | 15.6 | 0.00 | 0.67 | 0.62 | 77 | 1006.7 |
| 20260506151548 | 69 | 89 | 9.6 | 16.5 | 0.00 | 0.67 | 0.62 | 77 | 1006.8 |
| 20260506151037 | 68 | 121 | 8.7 | 16.5 | 0.00 | 0.67 | 0.62 | 77 | 1006.9 |
| 20260506150537 | 68 | 131 | 8.7 | 14.8 | 0.00 | 0.67 | 0.62 | 79 | 1006.9 |
| 20260506150056 | 68 | 126 | 8.7 | 14.8 | 0.00 | 0.67 | 0.62 | 78 | 1007.0 |
| 20260506145539 | 68 | 126 | 7.8 | 14.8 | 0.00 | 0.67 | 0.62 | 79 | 1007.1 |
| 20260506145037 | 68 | 95 | 7.8 | 14.8 | 0.00 | 0.67 | 0.62 | 74 | 1007.3 |
| 20260506144601 | 68 | 92 | 7.0 | 13.0 | 0.00 | 0.67 | 0.62 | 80 | 1007.3 |
| 20260506144037 | 68 | 132 | 8.7 | 14.8 | 0.00 | 0.67 | 0.62 | 81 | 1007.3 |
| 20260506143537 | 67 | 124 | 9.6 | 16.5 | 0.00 | 0.67 | 0.62 | 79 | 1007.3 |
| 20260506143047 | 67 | 127 | 11.3 | 16.5 | 0.00 | 0.67 | 0.62 | 79 | 1007.4 |
| 20260506142539 | 67 | 129 | 9.6 | 16.5 | 0.00 | 0.67 | 0.62 | 80 | 1007.4 |
| 20260506142037 | 67 | 101 | 8.7 | 15.6 | 0.00 | 0.67 | 0.62 | 80 | 1007.4 |
| 20260506141545 | 67 | 139 | 10.4 | 19.1 | 0.00 | 0.67 | 0.62 | 80 | 1007.5 |
| 20260506141037 | 67 | 118 | 11.3 | 19.1 | 0.00 | 0.67 | 0.62 | 80 | 1007.5 |
| 20260506140538 | 67 | 152 | 11.3 | 18.2 | 0.00 | 0.67 | 0.62 | 80 | 1007.7 |
| 20260506140051 | 67 | 136 | 11.3 | 16.5 | 0.00 | 0.67 | 0.62 | 80 | 1007.8 |
| 20260506135537 | 67 | 130 | 9.6 | 14.8 | 0.00 | 0.67 | 0.62 | 81 | 1007.9 |
| 20260506135037 | 67 | 137 | 10.4 | 16.5 | 0.00 | 0.67 | 0.62 | 79 | 1007.9 |
| 20260506134549 | 67 | 74 | 10.4 | 16.5 | 0.00 | 0.67 | 0.62 | 80 | 1007.9 |
| 20260506134037 | 67 | 128 | 8.7 | 14.8 | 0.00 | 0.67 | 0.62 | 76 | 1008.0 |
| 20260506133538 | 66 | 136 | 7.0 | 14.8 | 0.00 | 0.67 | 0.62 | 83 | 1008.2 |
| 20260506133051 | 66 | 136 | 8.7 | 14.8 | 0.00 | 0.67 | 0.62 | 82 | 1008.3 |
| 20260506132537 | 66 | 111 | 8.7 | 14.8 | 0.00 | 0.67 | 0.62 | 81 | 1008.3 |
| 20260506132037 | 66 | 113 | 7.0 | 12.2 | 0.00 | 0.67 | 0.62 | 83 | 1008.4 |
| 20260506131549 | 66 | 98 | 7.8 | 15.6 | 0.00 | 0.67 | 0.62 | 82 | 1008.4 |
| 20260506131037 | 66 | 147 | 9.6 | 15.6 | 0.00 | 0.67 | 0.62 | 83 | 1008.3 |
| 20260506130537 | 65 | 125 | 9.6 | 17.4 | 0.00 | 0.67 | 0.62 | 83 | 1008.3 |
| 20260506130052 | 65 | 137 | 11.3 | 17.4 | 0.00 | 0.67 | 0.62 | 82 | 1008.5 |
| 20260506125537 | 65 | 104 | 8.7 | 13.9 | 0.00 | 0.67 | 0.62 | 83 | 1008.5 |
| 20260506125037 | 65 | 121 | 7.8 | 14.8 | 0.00 | 0.67 | 0.62 | 83 | 1008.5 |
| 20260506124553 | 65 | 73 | 7.8 | 16.5 | 0.00 | 0.67 | 0.62 | 83 | 1008.5 |
| 20260506124041 | 65 | 86 | 7.0 | 16.5 | 0.00 | 0.67 | 0.62 | 85 | 1008.5 |
| 20260506123538 | 65 | 103 | 8.7 | 16.5 | 0.00 | 0.67 | 0.62 | 84 | 1008.5 |
| 20260506123049 | 65 | 38 | 9.6 | 14.8 | 0.00 | 0.67 | 0.62 | 83 | 1008.6 |
| 20260506122538 | 65 | 105 | 7.0 | 13.0 | 0.00 | 0.67 | 0.62 | 84 | 1008.7 |
| 20260506122039 | 64 | 168 | 7.8 | 13.9 | 0.00 | 0.67 | 0.62 | 84 | 1008.7 |
| 20260506121548 | 64 | 112 | 7.8 | 13.9 | 0.00 | 0.67 | 0.62 | 84 | 1008.8 |
| 20260506121037 | 64 | 109 | 8.7 | 13.9 | 0.00 | 0.67 | 0.62 | 85 | 1008.8 |
| 20260506120538 | 64 | 88 | 7.8 | 14.8 | 0.00 | 0.67 | 0.62 | 85 | 1008.8 |
| 20260506120050 | 64 | 93 | 8.7 | 14.8 | 0.00 | 0.67 | 0.62 | 86 | 1008.8 |
| 20260506115541 | 64 | 127 | 7.8 | 14.8 | 0.00 | 0.67 | 0.62 | 87 | 1008.8 |
| 20260506115038 | 63 | 120 | 7.8 | 14.8 | 0.00 | 0.67 | 0.62 | 87 | 1008.8 |
| 20260506114547 | 63 | 102 | 9.6 | 14.8 | 0.00 | 0.67 | 0.62 | 89 | 1009.0 |
| 20260506114038 | 63 | 126 | 7.8 | 17.4 | 0.00 | 0.67 | 0.62 | 89 | 1008.9 |
| 20260506113537 | 62 | 130 | 8.7 | 17.4 | 0.00 | 0.67 | 0.62 | 88 | 1008.9 |
| 20260506113045 | 62 | 112 | 7.8 | 13.9 | 0.00 | 0.67 | 0.62 | 89 | 1009.0 |
| 20260506112538 | 62 | 135 | 8.7 | 15.6 | 0.00 | 0.67 | 0.62 | 89 | 1009.0 |
| 20260506112039 | 62 | 145 | 10.4 | 15.6 | 0.00 | 0.67 | 0.62 | 90 | 1008.9 |
| 20260506111547 | 62 | 110 | 8.7 | 15.6 | 0.00 | 0.67 | 0.62 | 91 | 1009.0 |
| 20260506111037 | 61 | 123 | 8.7 | 13.0 | 0.00 | 0.67 | 0.62 | 90 | 1009.0 |
| 20260506110538 | 61 | 147 | 8.7 | 14.8 | 0.00 | 0.67 | 0.62 | 90 | 1009.1 |
| 20260506110046 | 61 | 147 | 7.8 | 15.6 | 0.00 | 0.67 | 0.62 | 91 | 1009.1 |
| 20260506105538 | 61 | 138 | 7.0 | 17.4 | 0.00 | 0.67 | 0.62 | 91 | 1009.2 |
| 20260506105041 | 61 | 134 | 11.3 | 17.4 | 0.00 | 0.67 | 0.62 | 91 | 1009.2 |
| 20260506104555 | 61 | 129 | 9.6 | 15.6 | 0.00 | 0.67 | 0.62 | 93 | 1009.3 |
| 20260506104037 | 60 | 84 | 8.7 | 14.8 | 0.00 | 0.67 | 0.62 | 93 | 1009.2 |
| 20260506103537 | 60 | 169 | 7.0 | 13.0 | 0.00 | 0.67 | 0.62 | 94 | 1009.2 |
| 20260506103046 | 60 | 102 | 7.8 | 14.8 | 0.03 | 0.67 | 0.62 | 94 | 1009.3 |
| 20260506102540 | 59 | 82 | 7.8 | 14.8 | 0.10 | 0.67 | 0.62 | 93 | 1009.3 |
| 20260506102036 | 59 | 116 | 7.8 | 15.6 | 0.15 | 0.67 | 0.62 | 93 | 1009.4 |
| 20260506101548 | 59 | 82 | 8.7 | 20.0 | 0.17 | 0.67 | 0.62 | 94 | 1009.3 |
| 20260506101037 | 59 | 144 | 10.4 | 20.0 | 0.18 | 0.67 | 0.62 | 94 | 1009.4 |
| 20260506100537 | 59 | 85 | 10.4 | 18.2 | 0.22 | 0.67 | 0.62 | 95 | 1009.5 |
| 20260506100047 | 59 | 76 | 10.4 | 18.2 | 0.26 | 0.67 | 0.62 | 96 | 1009.3 |
| 20260506095538 | 58 | 102 | 8.7 | 18.2 | 0.30 | 0.67 | 0.62 | 96 | 1009.1 |
| 20260506095040 | 58 | 105 | 8.7 | 15.6 | 0.29 | 0.66 | 0.61 | 96 | 1009.1 |
| 20260506094600 | 58 | 59 | 6.1 | 22.6 | 0.30 | 0.66 | 0.61 | 96 | 1009.1 |
| 20260506094037 | 57 | 126 | 13.0 | 22.6 | 0.31 | 0.66 | 0.61 | 95 | 1009.1 |
| 20260506093537 | 58 | 117 | 8.7 | 14.8 | 0.31 | 0.66 | 0.60 | 96 | 1009.1 |
| 20260506093047 | 57 | 72 | 8.7 | 14.8 | 0.29 | 0.63 | 0.58 | 96 | 1009.4 |
| 20260506092537 | 57 | 105 | 9.6 | 14.8 | 0.22 | 0.56 | 0.51 | 96 | 1009.4 |
| 20260506092037 | 57 | 113 | 7.0 | 11.3 | 0.18 | 0.51 | 0.46 | 96 | 1009.5 |
| 20260506091548 | 57 | 98 | 7.0 | 11.3 | 0.16 | 0.50 | 0.44 | 95 | 1009.6 |
| 20260506091037 | 57 | 143 | 3.5 | 7.8 | 0.16 | 0.49 | 0.44 | 95 | 1009.8 |
| 20260506090538 | 57 | 119 | 0.9 | 5.2 | 0.14 | 0.44 | 0.39 | 95 | 1010.0 |
| 20260506090047 | 57 | 234 | 1.7 | 5.2 | 0.10 | 0.40 | 0.35 | 95 | 1010.2 |